This is the latest recevied weather packets stored in our database for station/object K4AVM-13. If no packets are shown the sender has not sent any weather packets the latest 10 day(s).
| Time | Temp. | Humidity | Pressure | Rain* | Wind** | Luminosity | Snow |
|---|---|---|---|---|---|---|---|
| 1778010933 | 29.44° C | 30% | 1013.2 hPa | 0 mm | - | 507 W/m² | - |
| 1778010630 | 28.89° C | 28% | 1013.2 hPa | 0 mm | - | 511 W/m² | - |
| 1778010327 | 29.44° C | 28% | 1013.4 hPa | 0 mm | - | 525 W/m² | - |
| 1778010022 | 29.44° C | 29% | 1013.4 hPa | 0 mm | - | 528 W/m² | - |
| 1778009720 | 28.89° C | 29% | 1013.5 hPa | 0 mm | - | 541 W/m² | - |
| 1778009417 | 30° C | 28% | 1013.3 hPa | 0 mm | - | 553 W/m² | - |
| 1778009116 | 29.44° C | 28% | 1013.7 hPa | 0 mm | - | 563 W/m² | - |
| 1778008813 | 29.44° C | 29% | 1013.6 hPa | 0 mm | - | 568 W/m² | - |
| 1778008511 | 29.44° C | 31% | 1013.7 hPa | 0 mm | - | 583 W/m² | - |
| 1778008209 | 28.89° C | 31% | 1013.8 hPa | 0 mm | - | 576 W/m² | - |
| 1778007903 | 28.89° C | 30% | 1013.8 hPa | 0 mm | - | 586 W/m² | - |
| 1778007599 | 28.89° C | 32% | 1013.9 hPa | 0 mm | - | 608 W/m² | - |
| 1778007296 | 29.44° C | 31% | 1014 hPa | 0 mm | - | 619 W/m² | - |
| 1778006992 | 28.33° C | 32% | 1014.3 hPa | 0 mm | - | 629 W/m² | - |
| 1778006689 | 28.89° C | 30% | 1014.2 hPa | 0 mm | - | 638 W/m² | - |
| 1778006385 | 28.89° C | 30% | 1014.2 hPa | 0 mm | - | 640 W/m² | - |
| 1778006083 | 28.89° C | 30% | 1014.3 hPa | 0 mm | - | 654 W/m² | - |
| 1778005779 | 29.44° C | 30% | 1014.2 hPa | 0 mm | - | 650 W/m² | - |
| 1778005477 | 28.89° C | 30% | 1014.2 hPa | 0 mm | - | 658 W/m² | - |
| 1778005172 | 29.44° C | 32% | 1014.2 hPa | 0 mm | - | 661 W/m² | - |
| 1778004870 | 28.89° C | 33% | 1014.4 hPa | 0 mm | - | 666 W/m² | - |
| 1778004567 | 28.89° C | 33% | 1014.4 hPa | 0 mm | - | 674 W/m² | - |
| 1778004263 | 28.89° C | 34% | 1014.4 hPa | 0 mm | - | 679 W/m² | - |
| 1778003960 | 28.33° C | 35% | 1014.7 hPa | 0 mm | - | 676 W/m² | - |
| 1778003656 | 28.89° C | 34% | 1014.7 hPa | 0 mm | - | 686 W/m² | - |
* Rain latest hour (hover to see other rain measurements)
** Current wind speed in m/s (hover to see current wind gust speed)